FW5173 Weather Reports


time (UTC)temp
C
wind
direction
speed
KPH
gust
KPH
rain 1hr
cm
rain 24hr
cm
rain mn
cm
humidity
%
barometer
mb
20260906043036 -17 0.0 0.0 0.00 0.03 0.03 1009.9
20260906041536 -17 0.0 0.0 0.00 0.03 0.03 1009.7
20260906040037 -17 0.0 0.0 0.00 0.03 0.03 1009.9
20260906034552 -17 0.0 0.0 0.00 0.03 0.03 1010.1
20260906033039 -17 0.0 0.0 0.00 0.03 0.03 1010.3
20260906031536 -17 0.0 0.0 0.00 0.03 0.03 1010.3
20260906030036 -17 0.0 0.0 0.00 0.03 0.03 1010.3
20260906024536 -17 0.0 0.0 0.00 0.03 0.03 1010.2
20260906023033 -17 0.0 0.0 0.00 0.03 0.03 1009.9
20260906021538 -17 0.0 0.0 0.00 0.03 0.03 1009.8
20260906020024 -17 0.0 0.0 0.00 0.03 0.03 1009.9
20260906014522 -17 0.0 0.0 0.00 0.03 0.03 1009.7
20260906013018 -17 0.0 0.0 0.00 0.03 0.03 1009.8
20260906011513 -17 0.0 0.0 0.00 0.03 0.03 1009.2
20260906010009 -17 0.0 0.0 0.00 0.03 0.03 1009.3
20260906004506 -17 0.0 0.0 0.00 0.03 0.03 1009.0
20260906003003 -17 0.0 0.0 0.00 0.03 0.03 1008.7
20260906001606 -17 0.0 0.0 0.00 0.03 0.03 1008.5
20260906000056 24 289 0.0 6.4 0.00 0.03 0.03 92 1008.4
20260905234555 24 256 0.0 4.8 0.00 0.03 0.03 92 1008.2
20260905233055 25 297 0.0 1.6 0.00 0.03 0.03 89 1008.1
20260905231556 26 293 0.0 3.2 0.00 0.03 0.03 87 1008.0
20260905230053 27 281 0.0 0.0 0.00 0.03 0.03 83 1007.9
20260905224553 29 250 0.0 0.0 0.00 0.03 0.03 76 1007.7
20260905223056 30 246 0.0 0.0 0.00 0.03 0.03 72 1007.8
20260905221557 29 239 0.0 0.0 0.00 0.03 0.03 74 1007.9
20260905220051 29 275 0.0 0.0 0.00 0.03 0.03 75 1007.9
20260905214551 28 260 0.0 6.4 0.00 0.03 0.03 75 1007.8
20260905213050 28 221 1.6 4.8 0.00 0.03 0.03 77 1008.0
20260905211549 28 217 0.0 4.8 0.00 0.03 0.03 79 1008.1
20260905210059 26 231 0.0 4.8 0.00 0.03 0.03 82 1008.2
20260905204547 25 277 1.6 8.0 0.00 0.03 0.03 83 1008.4
20260905203047 25 238 0.0 8.0 0.00 0.03 0.03 86 1008.8
20260905201547 25 252 0.0 3.2 0.00 0.03 0.03 86 1008.8
20260905200111 25 260 0.0 4.8 0.00 0.03 0.03 87 1009.0
20260905194546 24 293 1.6 6.4 0.00 0.03 0.03 87 1009.1
20260905193046 24 272 0.0 6.4 0.00 0.03 0.03 88 1009.2
20260905191546 23 269 0.0 6.4 0.00 0.03 0.03 89 1009.1
20260905190044 23 216 0.0 4.8 0.03 0.03 0.03 88 1009.3
20260905184549 24 217 1.6 11.3 0.03 0.03 0.03 89 1009.3
20260905183043 24 250 1.6 12.9 0.03 0.03 0.03 89 1008.8
20260905181544 26 259 0.0 4.8 0.03 0.03 0.03 83 1008.3
20260905180039 29 358 4.8 32.2 0.00 0.00 0.00 67 1008.8
20260905174535 32 330 6.4 12.9 0.00 0.00 0.00 62 1009.8
20260905173042 33 349 3.2 9.7 0.00 0.00 0.00 61 1009.4
20260905171536 33 8 1.6 8.0 0.00 0.00 0.00 59 1009.6
20260905170032 33 65 1.6 14.5 0.00 0.00 0.00 61 1009.6
20260905164526 33 292 4.8 14.5 0.00 0.00 0.00 61 1009.7
20260905163024 33 295 4.8 12.9 0.00 0.00 0.00 64 1009.8
20260905161522 33 266 3.2 9.7 0.00 0.00 0.00 66 1010.2
20260905160020 33 115 4.8 14.5 0.00 0.00 0.00 65 1010.4
20260905154518 32 142 3.2 4.8 0.00 0.00 0.00 71 1010.5
20260905153025 31 79 1.6 6.4 0.00 0.00 0.00 74 1010.2
20260905151513 31 89 0.0 4.8 0.00 0.00 0.00 73 1010.2
20260905150019 30 73 3.2 6.4 0.00 0.00 0.00 75 1010.2
20260905144514 30 50 0.0 3.2 0.00 0.00 0.00 77 1010.3
20260905143008 29 220 0.0 4.8 0.00 0.00 0.00 77 1010.3
20260905141509 28 249 0.0 3.2 0.00 0.00 0.00 82 1010.5
20260905140003 28 277 0.0 0.0 0.00 0.00 0.00 81 1010.5
20260905134600 27 265 0.0 3.2 0.00 0.00 0.00 85 1010.6
20260905133056 26 205 0.0 1.6 0.00 0.00 0.00 88 1010.6
20260905131602 -17 0.0 0.0 0.00 0.00 0.00 1010.9
20260905130050 -17 0.0 0.0 0.00 0.00 0.00 1011.0
20260905124546 -17 0.0 0.0 0.00 0.00 0.00 1011.2
20260905123102 -17 0.0 0.0 0.00 0.00 0.00 1011.0
20260905121536 -17 0.0 0.0 0.00 0.00 0.00 1010.9
20260905120032 -17 0.0 0.0 0.00 0.00 0.00 1010.9
20260905114530 -17 0.0 0.0 0.00 0.00 0.00 1010.8
20260905113028 -17 0.0 0.0 0.00 0.00 0.00 1010.6
20260905111524 -17 0.0 0.0 0.00 0.00 0.00 1010.3
20260905110017 -17 0.0 0.0 0.00 0.00 0.00 1010.0
20260905104514 -17 0.0 0.0 0.00 0.00 0.00 1009.8
20260905103011 -17 0.0 0.0 0.00 0.00 0.00 1009.8
20260905101506 -17 0.0 0.0 0.00 0.00 0.00 1009.7
20260905100001 -17 0.0 0.0 0.00 0.00 0.00 1009.7
20260905094503 -17 0.0 0.0 0.00 0.00 0.00 1009.7
20260905093058 -17 0.0 0.0 0.00 0.00 0.00 1009.6
20260905091555 -17 0.0 0.0 0.00 0.00 0.00 1009.6
20260905090048 -17 0.0 0.0 0.00 0.00 0.00 1009.8
20260905084550 -17 0.0 0.0 0.00 0.00 0.00 1009.8
20260905083038 -17 0.0 0.0 0.00 0.00 0.00 1010.1
20260905081534 -17 0.0 0.0 0.00 0.00 0.00 1010.1
20260905080053 -17 0.0 0.0 0.00 0.00 0.00 1010.3
20260905074532 -17 0.0 0.0 0.00 0.00 0.00 1010.6
20260905073027 -17 0.0 0.0 0.00 0.00 0.00 1010.7
20260905071522 -17 0.0 0.0 0.00 0.00 0.00 1010.7
20260905070028 -17 0.0 0.0 0.00 0.00 0.00 1010.7
20260905064513 -17 0.0 0.0 0.00 0.00 0.00 1010.8
20260905063009 -17 0.0 0.0 0.00 0.00 0.00 1010.9
20260905061504 -17 0.0 0.0 0.00 0.00 0.00 1011.2
20260905060107 -17 0.0 0.0 0.00 0.00 0.00 1011.4
20260905054604 -17 0.0 0.0 0.00 0.00 0.00 1011.5
20260905053107 -17 0.0 0.0 0.00 0.00 0.00 1011.5
20260905051554 -17 0.0 0.0 0.00 0.00 0.00 1011.5
20260905050044 -17 0.0 0.0 0.00 0.00 0.00 1011.5
20260905044545 -17 0.0 0.0 0.00 0.00 0.00 1011.5